Rexburg, ID

5:45 PM MDT on May 22, 2017 (GMT -0600)
Rexburg-Madison County

Weather History for KRXE - November, 2010

Change the Weather History Date:

Tuesday, November 23, 2010

  Actual Average Record
Temperature  
Mean Temperature 18 °F 27 °F  
Max Temperature 32 °F 36 °F 52 °F (2011)
Min Temperature 4 °F 18 °F 2 °F (2003)
Degree Days  
Heating Degree Days 47 38  
Month to date heating degree days 682 746  
Since 1 July heating degree days 1484 1733  
Cooling Degree Days 0 0  
Month to date cooling degree days 0 0  
Year to date cooling degree days 175 208  
Moisture  
Dew Point 20 °F    
Average Humidity 82    
Maximum Humidity 100    
Minimum Humidity 64    
Precipitation  
Precipitation 0.02 in 0.03 in 0.28 in (2002)
Month to date precipitation 2.08 0.85  
Year to date precipitation 11.91 11.84  
Sea Level Pressure  
Sea Level Pressure 29.53 in    
Wind  
Wind Speed 21 mph (SSW)    
Max Wind Speed 29 mph    
Max Gust Speed 44 mph    
Visibility 4 miles    
Events Fog , Snow    
T = Trace of Precipitation, MM = Missing Value Source: NWS Daily Summary

Daily Weather History Graph

Daily Weather History Graph

Search for Another Location

Airport or City:

Trip Planner

Search our weather history database for the weather conditions in past years. The results will help you decide how hot, cold, wet, or windy it might be!

Date:

Astronomy

Nov. 23, 2010 Rise Set
Actual Time 7:32 AM MST 4:54 PM MST
Civil Twilight 7:00 AM MST 5:26 PM MST
Nautical Twilight 6:24 AM MST 6:02 PM MST
Astronomical Twilight 5:50 AM MST 6:36 PM MST
Moon 6:37 PM MST (11/23) 9:36 AM MST (11/23)
Length of Visible Light 10h 26m
Length of Day
9h 22m
Waning Gibbous, 95% of the Moon is Illuminated
Nov 23
Waning Gibbous
Nov 28
Last Quarter
Dec 5
New
Dec 13
First Quarter
Dec 21
Full

Hourly Weather History & Observations

Time (MST) Temp. Windchill Dew Point Humidity Pressure Visibility Wind Dir Wind Speed Gust Speed Precip Events Conditions
12:30 AM 23.0 °F 13.9 °F 21.2 °F 93% 29.69 in 2.5 mi South 8.1 mph - 0.01 in Snow Light Snow
12:38 AM 23.0 °F 12.4 °F 21.2 °F 93% 29.68 in 4.0 mi SSW 10.4 mph - 0.01 in Snow Light Snow
12:53 AM 23.0 °F 13.1 °F 21.0 °F 92% 29.76 in 4.0 mi South 9.2 mph - 0.01 in Snow Light Snow
1:51 AM 26.6 °F 16.2 °F 21.2 °F 80% 29.63 in 10.0 mi South 11.5 mph - 0.00 in   Overcast
1:53 AM 27.0 °F 16.1 °F 21.9 °F 81% 29.71 in 10.0 mi South 12.7 mph - 0.00 in   Overcast
2:08 AM 26.6 °F 15.7 °F 23.0 °F 86% 29.61 in 10.0 mi South 12.7 mph - 0.00 in Snow Light Snow
2:53 AM 28.9 °F 17.3 °F 24.1 °F 82% 29.67 in 10.0 mi South 16.1 mph 23.0 mph 0.00 in   Overcast
3:41 AM 28.4 °F 15.8 °F 24.8 °F 86% 29.56 in 2.5 mi South 18.4 mph 29.9 mph 0.00 in Snow Light Snow
3:53 AM 28.9 °F 17.3 °F 25.0 °F 85% 29.64 in 1.8 mi South 16.1 mph 27.6 mph 0.00 in Snow Light Snow
4:53 AM 28.9 °F 14.5 °F 26.1 °F 89% 29.60 in 1.2 mi SSW 25.3 mph 33.4 mph 0.00 in Snow Light Snow
5:04 AM 28.4 °F 15.4 °F 26.6 °F 93% 29.52 in 1.0 mi South 19.6 mph 28.8 mph 0.00 in Snow Light Snow
5:38 AM 28.4 °F 14.1 °F 26.6 °F 93% 29.49 in 2.0 mi South 24.2 mph 33.4 mph 0.00 in Snow Light Snow
5:53 AM 30.0 °F 16.6 °F 26.1 °F 85% 29.57 in 4.0 mi South 23.0 mph 33.4 mph 0.00 in Snow Light Snow
6:16 AM 30.2 °F 16.8 °F 26.6 °F 86% 29.48 in 5.0 mi South 23.0 mph 33.4 mph 0.00 in Snow Light Snow
6:27 AM 30.2 °F 18.1 °F 26.6 °F 86% 29.47 in 9.0 mi South 18.4 mph 28.8 mph 0.00 in   Overcast
6:53 AM 30.0 °F 17.9 °F 25.0 °F 82% 29.54 in 10.0 mi South 18.4 mph 26.5 mph 0.00 in   Mostly Cloudy
7:53 AM 30.9 °F 19.4 °F 24.1 °F 76% 29.52 in 10.0 mi South 17.3 mph 31.1 mph N/A   Overcast
8:23 AM 30.2 °F 16.8 °F 24.8 °F 80% 29.44 in 2.0 mi South 23.0 mph 34.5 mph 0.00 in Snow Light Snow
8:30 AM 32.0 °F 19.8 °F 24.8 °F 75% 29.44 in 1.2 mi SSW 20.7 mph 34.5 mph 0.00 in Snow Light Snow
8:34 AM 32.0 °F 20.8 °F 24.8 °F 75% 29.44 in 3.0 mi South 17.3 mph 28.8 mph 0.00 in Snow Light Snow
8:51 AM 30.2 °F 19.8 °F 24.8 °F 80% 29.44 in 10.0 mi SSW 13.8 mph 25.3 mph 0.00 in   Overcast
8:53 AM 30.9 °F 19.1 °F 25.0 °F 79% 29.51 in 10.0 mi SSW 18.4 mph 25.3 mph 0.00 in   Overcast
8:59 AM 30.2 °F 15.9 °F 26.6 °F 86% 29.44 in 1.8 mi SSW 26.5 mph 42.6 mph 0.00 in Snow Light Snow
9:03 AM 30.2 °F 17.1 °F 26.6 °F 86% 29.44 in 0.8 mi SSW 21.9 mph 42.6 mph 0.00 in Snow Light Snow
9:15 AM 30.2 °F 19.8 °F 26.6 °F 86% 29.43 in 0.8 mi South 13.8 mph 27.6 mph 0.00 in Snow Light Snow
9:25 AM 30.2 °F 18.1 °F 26.6 °F 86% 29.43 in 1.2 mi South 18.4 mph 28.8 mph 0.00 in Snow Light Snow
9:31 AM 30.2 °F 17.1 °F 26.6 °F 86% 29.42 in 3.0 mi South 21.9 mph 34.5 mph 0.00 in Snow Light Snow
9:53 AM 30.9 °F 18.4 °F 25.0 °F 79% 29.49 in 3.0 mi South 20.7 mph 29.9 mph 0.00 in Snow Light Snow
10:32 AM 32.0 °F 17.6 °F 26.6 °F 80% 29.42 in 0.8 mi SSW 29.9 mph 42.6 mph 0.00 in Snow Light Snow
10:51 AM 30.2 °F 15.9 °F 28.4 °F 93% 29.42 in 0.2 mi SSW 26.5 mph 41.4 mph 0.00 in Fog , Snow Snow
10:53 AM 30.0 °F 15.2 °F 28.9 °F 96% 29.50 in 0.5 mi SSW 28.8 mph 39.1 mph 0.00 in Fog , Snow Snow
10:55 AM 30.2 °F 15.4 °F 28.4 °F 93% 29.43 in 0.2 mi SSW 28.8 mph 39.1 mph 0.00 in Fog , Snow Snow
11:21 AM 28.4 °F 15.1 °F 26.6 °F 93% 29.44 in 0.5 mi SW 20.7 mph 29.9 mph 0.01 in Fog , Snow Light Snow
11:26 AM 28.4 °F 14.7 °F 26.6 °F 93% 29.44 in 0.8 mi SW 21.9 mph 29.9 mph 0.01 in Snow Light Snow
11:44 AM 28.4 °F 15.1 °F 26.6 °F 93% 29.44 in 0.5 mi SSW 20.7 mph 29.9 mph 0.01 in Fog , Snow Light Snow
12:01 PM 26.6 °F 12.0 °F 26.6 °F 100% 29.44 in 1.0 mi SSW 23.0 mph 33.4 mph 0.00 in Snow Light Snow
12:24 PM 26.6 °F 13.4 °F 24.8 °F 93% 29.44 in 3.0 mi SSW 18.4 mph 31.1 mph 0.00 in Snow Light Snow
12:32 PM 26.6 °F 11.1 °F 24.8 °F 93% 29.44 in 1.5 mi SSW 26.5 mph 33.4 mph 0.00 in Snow Light Snow
12:40 PM 26.6 °F 12.7 °F 24.8 °F 93% 29.43 in 0.2 mi SSW 20.7 mph 33.4 mph 0.00 in Fog , Snow Light Snow
12:50 PM 26.6 °F 13.1 °F 24.8 °F 93% 29.43 in 0.8 mi SSW 19.6 mph 31.1 mph 0.00 in Snow Light Snow
12:51 PM 26.6 °F 13.1 °F 24.8 °F 93% 29.43 in 1.0 mi SSW 19.6 mph 31.1 mph 0.00 in Snow Light Snow
12:53 PM 26.1 °F 10.7 °F 24.1 °F 92% 29.52 in 1.2 mi SSW 25.3 mph 34.5 mph 0.00 in Snow Light Snow
1:02 PM 24.8 °F 9.0 °F 23.0 °F 93% 29.44 in 0.8 mi SW 25.3 mph 38.0 mph 0.00 in   Mostly Cloudy
1:10 PM 24.8 °F 9.0 °F 21.2 °F 86% 29.44 in 0.5 mi SW 25.3 mph 34.5 mph 0.00 in Fog Light Freezing Fog
1:15 PM 24.8 °F 9.3 °F 21.2 °F 86% 29.45 in 1.0 mi SW 24.2 mph 34.5 mph 0.00 in Snow Blowing Snow
1:34 PM 24.8 °F 8.4 °F 19.4 °F 80% 29.45 in 1.2 mi SW 27.6 mph 35.7 mph 0.00 in   Mostly Cloudy
1:51 PM 23.0 °F 6.3 °F 19.4 °F 86% 29.44 in 1.0 mi SSW 26.5 mph 38.0 mph 0.00 in   Mostly Cloudy
1:53 PM 23.0 °F 6.3 °F 19.9 °F 88% 29.53 in 0.8 mi SSW 26.5 mph 38.0 mph 0.00 in   Mostly Cloudy
2:11 PM 23.0 °F 6.3 °F 19.4 °F 86% 29.45 in 1.5 mi SSW 26.5 mph 36.8 mph 0.00 in Snow Blowing Snow
2:37 PM 21.2 °F 4.5 °F 17.6 °F 86% 29.46 in 0.5 mi SW 24.2 mph 36.8 mph 0.00 in Fog Light Freezing Fog
2:48 PM 21.2 °F 4.2 °F 17.6 °F 86% 29.47 in 1.0 mi SW 25.3 mph 39.1 mph 0.00 in Snow Blowing Snow
2:53 PM 21.0 °F 4.6 °F 18.0 °F 88% 29.56 in 0.8 mi SW 23.0 mph 39.1 mph 0.00 in   Scattered Clouds
3:11 PM 21.2 °F 4.9 °F 17.6 °F 86% 29.47 in 1.8 mi SSW 23.0 mph 33.4 mph 0.00 in   Partly Cloudy
3:19 PM 19.4 °F 2.1 °F 15.8 °F 86% 29.47 in 2.5 mi SSW 24.2 mph 34.5 mph 0.00 in   Partly Cloudy
3:38 PM 19.4 °F 2.5 °F 15.8 °F 86% 29.48 in 4.0 mi SSW 23.0 mph 32.2 mph 0.00 in   Partly Cloudy
3:53 PM 19.0 °F 1.6 °F 12.9 °F 77% 29.58 in 5.0 mi SSW 24.2 mph 36.8 mph 0.00 in   Clear
4:53 PM 17.1 °F -1.4 °F 8.1 °F 68% 29.60 in 6.0 mi SSW 25.3 mph 33.4 mph 0.00 in   Haze
5:53 PM 14.0 °F -3.9 °F 3.9 °F 64% 29.63 in 9.0 mi South 20.7 mph 31.1 mph 0.00 in   Partly Cloudy
6:53 PM 12.9 °F -6.1 °F 3.9 °F 67% 29.67 in 7.0 mi South 23.0 mph 32.2 mph N/A   Partly Cloudy
7:53 PM 10.9 °F -6.5 °F 1.9 °F 67% 29.69 in 10.0 mi South 17.3 mph 27.6 mph 0.00 in   Mostly Cloudy
8:24 PM 8.6 °F -11.9 °F 3.2 °F 79% 29.57 in 2.5 mi SSW 23.0 mph 39.1 mph 0.00 in Snow Light Snow
8:33 PM 8.6 °F -11.9 °F 3.2 °F 79% 29.57 in 1.0 mi SSW 23.0 mph 32.2 mph 0.00 in Snow Light Snow
8:42 PM 8.6 °F -13.1 °F 5.0 °F 85% 29.57 in 0.5 mi SW 26.5 mph 39.1 mph 0.00 in Fog , Snow Light Snow
8:53 PM 9.0 °F -13.0 °F 5.0 °F 84% 29.72 in 1.0 mi SW 27.6 mph 35.7 mph 0.00 in Snow Light Snow
8:59 PM 8.6 °F -11.0 °F 3.2 °F 79% 29.59 in 2.5 mi SW 20.7 mph 35.7 mph 0.00 in Snow Blowing Snow
9:07 PM 8.6 °F -10.5 °F 3.2 °F 79% 29.60 in 7.0 mi WSW 19.6 mph 31.1 mph 0.00 in   Overcast
9:53 PM 7.0 °F -9.8 °F 3.0 °F 84% 29.78 in 10.0 mi SW 13.8 mph 23.0 mph 0.00 in   Overcast
10:53 PM 5.0 °F -12.3 °F -0.9 °F 76% 29.84 in 10.0 mi SW 13.8 mph - N/A   Mostly Cloudy
11:53 PM 3.9 °F -11.3 °F -0.9 °F 80% 29.89 in 10.0 mi SSW 10.4 mph - N/A   Mostly Cloudy